Regional Weather Roundup
Issued by NWS

Home | Current Version | Previous Version | Graphics & Text | Print | Product List | Glossary On
Versions: 1 2 3 4 5 6 7 8 9 10 11 12 13 14 15 16 17 18 19 20 21 22 23 24 25 26 27 28 29 30 31 32 33 34 35 36 37 38 39 40 41 42 43 44 45 46 47 48 49 50
000
ASUS43 KIND 252159
RWRIN

WEATHER ROUNDUP FOR INDIANA
NATIONAL WEATHER SERVICE INDIANAPOLIS IN
600 PM EDT TUE APR 25 2017

NOTE: "FAIR" INDICATES FEW OR NO CLOUDS BELOW 12,000 FEET WITH NO
SIGNIFICANT WEATHER AND/OR OBSTRUCTIONS TO VISIBILITY.

* - STATION DOES NOT REPORT WEATHER SUCH AS PRECIPITATION OR FOG.

+ - STATION NOT QUALITY CONTROLLED BY THE NATIONAL WEATHER SERVICE.
    USE DATA WITH CAUTION...ESPECIALLY DEWPOINT AND RELATIVE
    HUMIDITY OBSERVATIONS.

INZ001>003-010>013-019-020-252300-
NORTHWEST INDIANA

CITY           SKY/WX    TMP DP  RH WIND       PRES   REMARKS
GARY /AIRPORT/ PTSUNNY   81  41  24 SE14G29   29.57F
KNOX *+        CLOUDY    77  25  14 SE13G21   29.61F
MONTICELLO +   CLOUDY    76  51  41 S12       29.61F

$$

LMZ046-743>745-252300-
SOUTHERN LAKE MICHIGAN

STATION/POSITION TIME  TEMP    WIND        PRES    WAVE
                       AIR SEA DIR/SP/G            HT
                 (UTC) (F)     (DEG/KT/KT) (MB)    (FT)
BURNS HARBOR     2140   77     140/ 15/ 22 1002.0F
MICHIGAN CITY    2130   74     140/ 12/ 15   N/A

$$

INZ004-005-014>016-021>024-252300-
NORTH CENTRAL INDIANA

CITY           SKY/WX    TMP DP  RH WIND       PRES   REMARKS
ELKHART        MOSUNNY   73  54  49 SE12      29.65F
GOSHEN         PTSUNNY   74  53  48 SE10      29.66F
SOUTH BEND     MOSUNNY   73  55  53 S13G24    29.63F

$$

INZ006>009-017-018-025>027-252300-
NORTHEAST INDIANA

CITY           SKY/WX    TMP DP  RH WIND       PRES   REMARKS
ANGOLA *+      MOSUNNY   73  55  53 S10       29.68F
FORT WAYNE     CLOUDY    75  54  47 S12       29.67F
KENDALLVILLE + CLOUDY    74  56  54 SE10      29.69F

$$

INZ028-029-035-036-043>045-051>053-252300-
WEST CENTRAL INDIANA

CITY           SKY/WX    TMP DP  RH WIND       PRES   REMARKS
CRAWFORDSVL +  SUNNY     75  53  45 SE16      29.63S
GREENCASTLE +  SUNNY     75  54  46 SE10      29.63F
LAFAYETTE      CLOUDY    75  54  47 SE12      29.60F
TERRE HAUTE    SUNNY     77  53  43 S13       29.62F

$$

INZ030>032-037>040-046>048-054>057-064-065-252300-
CENTRAL INDIANA

CITY           SKY/WX    TMP DP  RH WIND       PRES   REMARKS
COLUMBUS       SUNNY     75  50  41 S9G16     29.68F
INDIANAPOLIS   PTSUNNY   75  56  51 SE10      29.64F
-EAGLE CREEK   MOSUNNY   76  54  46 S8        29.64F
KOKOMO +       SUNNY     76  55  48 SE10G17   29.65F
SHELBYVILLE    SUNNY     76  53  44 S10       29.67F

$$

INZ033-034-041-042-049-050-058-059-252300-
EAST CENTRAL INDIANA

CITY           SKY/WX    TMP DP  RH WIND       PRES   REMARKS
MUNCIE         MOSUNNY   77  54  44 SE5       29.68F
RICHMOND +     SUNNY     73  54  49 S8        29.71S

$$

INZ060-061-067>069-081>083-085>088-252300-
SOUTHWEST INDIANA

CITY           SKY/WX    TMP DP  RH WIND       PRES   REMARKS
EVANSVILLE       N/A    N/A N/A N/A MISG      29.64F
HUNTINGBURG *+ CLOUDY    76  57  51 S10       29.66F

$$

INZ062-063-066-070>080-084-089>092-252300-
SOUTH CENTRAL AND SOUTHEAST INDIANA

CITY           SKY/WX    TMP DP  RH WIND       PRES   REMARKS
BLOOMINGTON    SUNNY     77  54  44 S10       29.65F
MADISON *+     SUNNY     73  54  49 S6        29.71F
SEYMOUR +      SUNNY     77  55  47 SE8       29.67F

$$





USA.gov is the U.S. government's official web portal to all federal, state and local government web resources and services.